Flag for Afghanistan Weather past 2 weeks in Jalalabad, Afghanistan

Now
82 °F

Sunny.


Feels Like: 87 °F
Forecast: 71 / 102 °F
Wind: 5 mph from Northeast

Location: Peshawar Airport

Current Time: Aug 29, 2015 at 8:17:52 AM

Latest Report: Aug 29, 2015 at 7:30 AM


Visibility: 2 mi

Pressure: 29.65 "Hg (27.79 "Hg at 572m altitude)

Humidity: 70%

Dew point: 72 °F

Location of JalalabadLocation

Historic Weather in Jalalabad — Graph

°F

Jalalabad temperature yesterday

Maximum temperature yesterday: 93 °F (at 2:30 PM)
Minimum temperature yesterday: 72 °F (at 5:30 AM)
Average temperature yesterday: 83 °F

Past Weeks' High & Low Weather Summary

 TemperatureHumidityPressure
High99 °F (Aug 18, 2:30 PM)94% (Aug 20, 10:30 PM)30.24 "Hg (Aug 20, 10:30 PM)
Low70 °F (Aug 17, 5:30 AM)41% (Aug 25, 4:30 PM)29.53 "Hg (Aug 18, 5:30 PM)
Average85 °F63%29.63 "Hg
* Reported Aug 14 6:30 AM — Aug 29 6:30 AM, Jalalabad, Weather by CustomWeather, © 2015

Note: Actual official high and low records may vary slightly from our data, if they occured in-between our weather recording intervals... More about our weather records

Advertising

Jalalabad weather history for previous 24 hours

 ConditionsComfort  
Time TempWeatherWind HumidityBarometerVisibility
6:30 AM
Sat, Aug 29
79 °FSunny.5 mph79%29.65 "Hg2 mi
5:30 AM79 °FSunny.5 mph79%29.65 "Hg2 mi
4:29 AM79 °FHaze.No wind79%29.65 "Hg2 mi
3:30 AM79 °FHaze.5 mph74%29.65 "Hg2 mi
2:30 AM81 °FHaze.5 mph70%29.65 "Hg2 mi
1:30 AM81 °FHaze.7 mph66%29.62 "Hg2 mi
12:30 AM81 °FHaze.5 mph66%29.65 "Hg2 mi
11:30 PM
Fri, Aug 28
82 °FHaze.7 mph66%29.65 "Hg2 mi
10:30 PM84 °FHaze.7 mph62%29.65 "Hg2 mi
9:30 PM84 °FHaze.7 mph74%29.65 "Hg2 mi
8:30 PM86 °FHaze.5 mph62%29.65 "Hg2 mi
7:30 PM86 °FHaze.5 mph59%29.62 "Hg2 mi
6:30 PM88 °FHaze.5 mph55%29.59 "Hg3 mi
4:30 PM91 °FHaze.7 mph49%29.62 "Hg5 mi
3:30 PM93 °FHaze.12 mph53%29.65 "Hg5 mi
2:30 PM93 °FHaze.9 mph53%29.65 "Hg5 mi
1:30 PM91 °FHaze.7 mph52%29.68 "Hg5 mi
12:30 PM90 °FHaze.7 mph55%29.71 "Hg3 mi
11:30 AM88 °FHaze.9 mph55%29.74 "Hg3 mi
10:30 AM86 °FHaze.7 mph59%29.74 "Hg2 mi
9:30 AM86 °FHaze.7 mph59%29.77 "Hg2 mi
8:30 AM82 °FHaze.5 mph66%29.74 "Hg2 mi
Weather by CustomWeather, © 2015

See weather overviewHow to use our weather pages